KE5KZS Weather Reports


Display with metric or nautical units.
time (UTC)temp
F
wind
direction
speed
MPH
gust
MPH
rain 1hr
in
rain 24hr
in
rain mn
in
humidity
%
barometer
mb
20260901133018 84 135 2.0 4.0 0.00 0.00 0.00 70 1015.8
20260901132017 83 135 2.0 4.0 0.00 0.00 0.00 71 1015.8
20260901131017 82 135 1.0 3.0 0.00 0.00 0.00 73 1015.7
20260901130037 80 158 1.0 2.0 0.00 0.00 0.00 76 1015.5
20260901125057 79 158 1.0 2.0 0.00 0.00 0.00 78 1015.3
20260901124037 78 158 1.0 2.0 0.00 0.00 0.00 78 1015.2
20260901123017 78 0.0 0.0 0.00 0.00 0.00 77 1015.1
20260901122017 78 0.0 2.0 0.00 0.00 0.00 77 1015.2
20260901121037 78 0.0 1.0 0.00 0.00 0.00 77 1015.1
20260901120037 78 0.0 1.0 0.00 0.00 0.00 77 1014.7
20260901115017 78 0.0 0.0 0.00 0.00 0.00 75 1014.9
20260901114017 79 0.0 0.0 0.00 0.00 0.00 74 1014.7
20260901113017 80 0.0 0.0 0.00 0.00 0.00 73 1014.7
20260901112017 80 0.0 0.0 0.00 0.00 0.00 72 1014.7
20260901111037 81 0.0 0.0 0.00 0.00 0.00 71 1014.6
20260901110017 81 0.0 0.0 0.00 0.00 0.00 71 1014.5
20260901105017 81 158 1.0 4.0 0.00 0.00 0.00 70 1014.5
20260901104017 82 0.0 1.0 0.00 0.00 0.00 69 1014.4
20260901103017 82 158 1.0 4.0 0.00 0.00 0.00 69 1014.6
20260901102017 82 158 1.0 4.0 0.00 0.00 0.00 68 1014.6
20260901101018 82 0.0 4.0 0.00 0.00 0.00 68 1014.5
20260901100017 83 158 1.0 4.0 0.00 0.00 0.00 67 1014.6
20260901095017 83 180 1.0 3.0 0.00 0.00 0.00 66 1014.5
20260901094037 83 180 2.0 4.0 0.00 0.00 0.00 66 1014.6
20260901093017 83 248 1.0 5.0 0.00 0.00 0.00 65 1014.7
20260901092017 83 180 3.0 6.0 0.00 0.00 0.00 65 1014.8
20260901091017 84 203 3.0 7.0 0.00 0.00 0.00 65 1014.9
20260901090118 84 203 2.0 4.0 0.00 0.00 0.00 65 1014.6
20260901085017 84 158 2.0 5.0 0.00 0.00 0.00 64 1014.7
20260901084017 84 158 2.0 5.0 0.00 0.00 0.00 63 1014.6
20260901083017 84 180 3.0 7.0 0.00 0.00 0.00 63 1014.6
20260901082017 84 135 4.0 10.0 0.00 0.00 0.00 62 1014.5
20260901081017 83 135 3.0 6.0 0.00 0.00 0.00 62 1014.4
20260901080017 82 135 3.0 7.0 0.00 0.00 0.00 63 1014.4
20260901075018 81 135 2.0 4.0 0.00 0.00 0.00 64 1014.4
20260901074017 80 0.0 0.0 0.00 0.00 0.00 65 1014.2
20260901073017 80 0.0 0.0 0.00 0.00 0.00 65 1014.2
20260901072017 80 0.0 0.0 0.00 0.00 0.00 66 1014.3
20260901071017 80 0.0 0.0 0.00 0.00 0.00 64 1014.2
20260901070017 80 0.0 0.0 0.00 0.00 0.00 63 1014.1
20260901065017 80 0.0 0.0 0.00 0.00 0.00 64 1014.1
20260901064037 79 0.0 0.0 0.00 0.00 0.00 64 1014.0
20260901063017 79 0.0 0.0 0.00 0.00 0.00 66 1014.0
20260901062017 79 0.0 0.0 0.00 0.00 0.00 67 1013.9
20260901061017 79 0.0 0.0 0.00 0.00 0.00 67 1013.8
20260901060017 79 0.0 0.0 0.00 0.00 0.00 66 1013.8
20260901055017 80 0.0 1.0 0.00 0.00 0.00 65 1013.5
20260901054017 80 0.0 0.0 0.00 0.00 0.00 63 1013.5
20260901053017 81 0.0 0.0 0.00 0.00 0.00 63 1013.4
20260901052017 81 0.0 0.0 0.00 0.00 0.00 62 1013.3
20260901051017 82 0.0 1.0 0.00 0.00 0.00 61 1013.2
20260901050017 83 0.0 0.0 0.00 0.00 0.00 59 1013.2
20260901045016 84 0.0 0.0 0.00 0.00 0.00 57 1013.1
20260901044015 85 0.0 0.0 0.00 0.00 0.00 55 1013.1
20260901043016 86 0.0 1.0 0.00 0.00 0.00 54 1013.1
20260901042016 86 0.0 0.0 0.00 0.00 0.00 50 1013.1
20260901041016 87 0.0 1.0 0.00 0.00 0.00 48 1013.2
20260901040016 88 0.0 1.0 0.00 0.00 0.00 47 1013.1
20260901035036 88 135 1.0 2.0 0.00 0.00 0.00 47 1013.2
20260901034016 88 135 1.0 3.0 0.00 0.00 0.00 47 1013.1
20260901033015 89 135 1.0 3.0 0.00 0.00 0.00 46 1013.1
20260901032015 89 135 1.0 3.0 0.00 0.00 0.00 46 1013.0
20260901031015 89 135 2.0 3.0 0.00 0.00 0.00 46 1013.0
20260901030036 89 135 2.0 3.0 0.00 0.00 0.00 46 1013.0
20260901025016 90 135 1.0 3.0 0.00 0.00 0.00 45 1013.0
20260901024016 90 135 1.0 4.0 0.00 0.00 0.00 45 1012.9
20260901023016 90 135 1.0 4.0 0.00 0.00 0.00 45 1012.8
20260901022015 91 135 1.0 2.0 0.00 0.00 0.00 45 1012.5
20260901021016 91 135 1.0 2.0 0.00 0.00 0.00 44 1012.4
20260901020016 92 135 1.0 3.0 0.00 0.00 0.00 44 1012.3
20260901015036 92 135 1.0 4.0 0.00 0.00 0.00 43 1012.2
20260901014016 93 135 2.0 3.0 0.00 0.00 0.00 42 1012.1
20260901013016 93 135 1.0 4.0 0.00 0.00 0.00 41 1011.9
20260901012016 94 135 2.0 3.0 0.00 0.00 0.00 41 1011.8
20260901011035 94 135 1.0 3.0 0.00 0.00 0.00 40 1011.7
20260901010016 95 135 2.0 4.0 0.00 0.00 0.00 39 1011.8
20260901005016 96 135 1.0 3.0 0.00 0.00 0.00 39 1011.7
20260901004015 96 158 2.0 6.0 0.00 0.00 0.00 38 1011.7
20260901003016 96 113 2.0 7.0 0.00 0.00 0.00 38 1011.6
20260901002015 97 113 3.0 8.0 0.00 0.00 0.00 37 1011.7
20260901001036 97 113 4.0 9.0 0.00 0.00 0.00 37 1011.8
20260901000015 97 113 4.0 8.0 0.00 0.00 0.00 36 1011.8
20260831235016 98 135 3.0 8.0 0.00 0.00 0.00 37 1011.9
20260831234015 98 135 3.0 8.0 0.00 0.00 0.00 37 1011.9
20260831233016 99 90 3.0 8.0 0.00 0.00 0.00 37 1011.9
20260831232016 99 135 3.0 8.0 0.00 0.00 0.00 36 1011.9
20260831231116 99 90 4.0 8.0 0.00 0.00 0.00 36 1011.8
20260831230016 100 90 3.0 9.0 0.00 0.00 0.00 35 1011.9
20260831225015 100 135 3.0 7.0 0.00 0.00 0.00 35 1012.0
20260831224016 100 90 4.0 9.0 0.00 0.00 0.00 35 1012.1
20260831223016 100 113 4.0 10.0 0.00 0.00 0.00 34 1012.1
20260831222015 101 113 4.0 7.0 0.00 0.00 0.00 35 1012.2
20260831221015 102 158 3.0 7.0 0.00 0.00 0.00 35 1012.1
20260831220015 102 90 4.0 9.0 0.00 0.00 0.00 34 1012.4
20260831215016 103 135 4.0 8.0 0.00 0.00 0.00 34 1012.5
20260831214015 103 203 4.0 8.0 0.00 0.00 0.00 33 1012.6
20260831213015 103 113 4.0 8.0 0.00 0.00 0.00 34 1012.7
20260831212016 103 158 4.0 9.0 0.00 0.00 0.00 34 1012.7
20260831211015 102 158 4.0 10.0 0.00 0.00 0.00 35 1012.8
20260831210016 102 135 4.0 9.0 0.00 0.00 0.00 34 1013.0
20260831205016 103 135 5.0 13.0 0.00 0.00 0.00 34 1013.2
20260831204056 104 158 4.0 11.0 0.00 0.00 0.00 33 1013.3
20260831203016 103 135 3.0 6.0 0.00 0.00 0.00 34 1013.5
20260831202016 102 158 4.0 10.0 0.00 0.00 0.00 36 1013.5
20260831201036 103 135 3.0 9.0 0.00 0.00 0.00 34 1013.6
20260831200016 102 113 3.0 8.0 0.00 0.00 0.00 36 1013.6
20260831195035 102 135 4.0 10.0 0.00 0.00 0.00 35 1013.9
20260831194015 101 135 5.0 11.0 0.00 0.00 0.00 37 1014.1
20260831193016 101 158 4.0 9.0 0.00 0.00 0.00 37 1014.3
20260831192016 100 113 4.0 10.0 0.00 0.00 0.00 37 1014.3
20260831191016 102 158 5.0 12.0 0.00 0.00 0.00 36 1014.3
20260831190016 102 180 5.0 11.0 0.00 0.00 0.00 36 1014.4
20260831185016 102 113 5.0 11.0 0.00 0.00 0.00 37 1014.5
20260831184015 102 158 5.0 12.0 0.00 0.00 0.00 37 1014.7
20260831183016 102 180 4.0 16.0 0.00 0.00 0.00 39 1014.9
20260831182016 101 158 4.0 11.0 0.00 0.00 0.00 40 1014.9
20260831181015 101 135 5.0 10.0 0.00 0.00 0.00 40 1015.0
20260831180016 101 135 3.0 7.0 0.00 0.00 0.00 40 1015.1
20260831175016 101 158 4.0 10.0 0.00 0.00 0.00 41 1015.5
20260831174016 101 180 5.0 11.0 0.00 0.00 0.00 41 1015.6
20260831173015 101 90 3.0 9.0 0.00 0.00 0.00 40 1015.5
20260831172035 100 180 4.0 10.0 0.00 0.00 0.00 41 1015.7
20260831171015 100 135 5.0 10.0 0.00 0.00 0.00 40 1015.7
20260831170015 100 225 3.0 6.0 0.00 0.00 0.00 43 1015.8
20260831165015 99 158 3.0 8.0 0.00 0.00 0.00 43 1015.8
20260831164016 99 180 3.0 8.0 0.00 0.00 0.00 42 1015.7
20260831163016 98 180 3.0 8.0 0.00 0.00 0.00 43 1016.0
20260831162015 98 203 3.0 10.0 0.00 0.00 0.00 45 1016.0
20260831161015 98 158 4.0 9.0 0.00 0.00 0.00 45 1016.0
20260831160015 97 225 3.0 9.0 0.00 0.00 0.00 46 1016.0
20260831155016 97 203 4.0 10.0 0.00 0.00 0.00 45 1016.0
20260831154016 96 180 3.0 7.0 0.00 0.00 0.00 47 1016.0
20260831153036 95 203 2.0 5.0 0.00 0.00 0.00 50 1015.9
20260831152016 94 158 3.0 6.0 0.00 0.00 0.00 51 1015.8
20260831151015 93 180 4.0 7.0 0.00 0.00 0.00 51 1015.7
20260831150015 93 180 3.0 7.0 0.00 0.00 0.00 51 1015.7
20260831145016 92 158 3.0 8.0 0.00 0.00 0.00 54 1015.8
20260831144056 91 158 3.0 8.0 0.00 0.00 0.00 56 1015.8
20260831143016 90 225 3.0 6.0 0.00 0.00 0.00 59 1015.7
20260831142015 89 180 3.0 6.0 0.00 0.00 0.00 61 1015.8
20260831141015 88 203 3.0 7.0 0.00 0.00 0.00 62 1015.7
20260831140016 87 158 3.0 7.0 0.00 0.00 0.00 63 1015.8
20260831135015 86 158 4.0 7.0 0.00 0.00 0.00 65 1015.5
20260831134035 85 180 2.0 5.0 0.00 0.00 0.00 68 1015.2